Theta_e
307 307 307 306 305 305 307 306 306 306 306 305 304 303 301 300 297 296 296 298 299 300 301 299 301 303 303 303 305 304 305 306 305 305 305 306 307 306 305 303 303 303 303 303 303 303 303 303 302 303 304 304 303 303 302 302 302 301 302 304 305 305 303 303 303 303 304 306 307 305 305 306 308 310
307 306 306 305 304 306 306 305 306 306 306 304 304 303 303 302 298 298 296 298 301 299 302 302 300 302 303 303 304 305 305 306 305 304 304 305 306 305 304 303 302 302 303 303 301 301 301 302 303 303 303 303 302 301 301 301 301 301 302 304 304 303 302 302 302 303 303 303 304 305 305 307 308 310
306 305 304 305 304 306 306 306 306 306 305 304 303 302 304 304 303 301 299 296 301 303 300 302 303 302 303 303 304 304 304 305 304 304 305 305 305 306 305 304 303 303 302 302 303 304 302 301 301 302 302 302 302 301 302 301 301 302 302 301 301 301 302 301 301 302 303 305 305 306 306 307 308 309
305 305 304 304 305 305 305 304 305 304 305 305 303 303 303 303 303 302 300 298 298 302 301 301 302 302 303 304 303 303 303 304 305 305 304 305 305 305 305 304 304 303 302 302 301 301 301 300 300 301 301 301 301 301 301 301 301 301 300 300 300 300 301 301 301 302 304 305 305 306 306 306 306 308
304 304 303 303 304 305 304 304 304 304 304 305 304 304 303 302 303 302 300 298 298 301 303 302 302 303 304 301 302 301 303 303 304 304 305 305 305 305 305 305 304 303 302 301 301 301 300 300 301 302 302 301 301 301 300 300 300 300 300 300 300 300 301 301 300 301 302 304 304 304 304 304 304 305
304 304 303 303 304 305 304 304 303 303 304 304 302 303 303 302 302 303 300 299 298 298 301 301 302 302 303 300 303 302 302 303 304 304 304 305 305 304 305 304 305 303 303 302 301 300 300 299 300 300 299 299 299 300 299 299 299 299 299 297 297 299 300 301 300 300 301 302 303 302 303 303 304 304
304 304 304 304 304 305 305 305 305 305 304 304 304 304 303 303 302 302 302 300 298 298 299 301 301 301 302 302 301 302 303 304 303 302 303 303 304 304 304 304 304 302 301 301 300 300 300 299 299 299 299 298 298 299 298 298 299 298 298 298 298 299 300 300 300 300 302 302 302 302 302 303 304 304
304 303 303 304 305 305 304 304 304 304 304 304 303 303 303 303 302 303 303 303 300 299 298 301 299 301 301 301 302 302 303 302 302 303 302 303 303 304 304 304 304 302 302 301 301 300 300 300 299 299 299 299 299 299 298 298 298 298 298 298 298 298 299 299 299 299 300 300 300 300 300 301 302 303
304 304 303 303 304 305 304 304 303 303 304 303 304 302 302 302 302 303 303 302 302 300 299 299 301 302 301 301 302 302 300 301 302 303 303 302 302 303 304 304 303 303 303 302 301 300 300 299 299 299 299 299 299 298 298 298 298 298 298 298 298 298 298 299 299 300 299 300 299 300 301 301 302 304
305 305 304 304 305 304 304 303 303 303 303 303 303 302 302 301 302 302 302 301 301 300 299 299 299 301 300 300 302 301 301 300 300 300 301 302 302 302 302 302 303 304 303 303 303 301 300 300 299 299 299 299 298 298 298 298 298 298 298 298 298 298 298 298 299 299 298 299 299 299 300 300 301 302
305 305 304 305 305 303 303 302 302 301 301 302 302 302 301 301 301 300 300 299 299 299 298 299 300 299 300 301 299 300 301 301 300 299 298 298 301 302 301 300 302 303 302 302 300 300 300 300 301 299 298 298 299 299 299 299 299 298 298 298 297 296 296 297 297 298 299 299 299 299 298 298 299 300
305 305 305 305 303 302 302 302 302 301 299 301 301 300 300 300 299 299 298 298 298 297 298 297 296 298 298 299 300 300 301 299 299 300 298 296 297 299 301 302 301 302 302 300 301 300 300 299 299 298 299 299 300 299 299 300 300 300 299 298 297 298 297 297 297 298 298 298 298 298 297 298 299 299
305 305 305 304 303 301 300 298 298 298 297 301 298 299 299 298 298 298 298 297 296 296 296 296 298 297 297 298 297 297 297 296 296 298 299 298 298 299 299 300 302 302 299 299 299 299 299 298 297 298 298 299 300 300 300 300 300 300 299 298 298 298 298 298 298 298 298 298 298 298 298 298 298 298
306 305 306 303 299 300 300 300 297 295 295 296 299 299 298 297 297 297 296 295 295 296 295 295 296 295 296 296 297 297 298 298 299 298 298 296 297 299 298 299 301 302 300 298 296 297 299 298 297 298 297 299 299 299 299 299 299 298 297 297 297 297 297 297 298 298 298 298 298 298 298 298 298 298
305 306 305 306 303 304 304 305 296 295 295 294 294 295 296 298 299 296 295 295 296 295 295 296 296 295 295 296 297 298 297 298 297 297 298 297 297 296 294 293 298 303 300 297 295 295 299 298 296 297 297 298 299 299 299 298 298 297 297 297 297 297 297 297 297 296 296 296 296 297 297 297 298 298
306 306 305 305 305 304 300 302 305 301 296 294 294 293 294 294 294 295 296 295 295 295 295 295 296 296 295 295 297 296 297 296 297 298 297 297 296 296 295 295 294 299 301 297 294 294 297 297 296 296 297 298 299 299 298 297 297 297 297 297 297 297 297 297 296 296 296 296 296 296 296 296 296 297
305 306 305 304 304 305 303 303 301 302 303 299 295 295 295 295 293 291 291 293 298 297 296 296 295 296 296 295 296 298 297 299 297 297 296 297 297 297 296 296 296 299 300 296 294 292 295 297 295 295 297 298 298 298 298 297 297 296 296 296 296 296 296 296 296 296 296 296 296 296 297 297 297 297
305 304 304 303 303 303 304 303 300 301 302 302 304 304 304 303 301 295 293 293 292 295 297 297 296 297 298 296 297 299 300 298 296 296 296 297 297 297 296 298 299 300 300 295 293 291 294 295 294 293 295 298 297 297 297 296 296 296 296 296 296 296 295 295 295 295 295 295 295 296 296 297 297 297
306 304 303 302 303 303 303 304 298 301 300 302 303 303 303 303 303 304 302 300 299 299 299 299 298 298 299 298 298 299 299 299 299 299 298 299 299 299 300 300 300 299 299 297 293 288 292 294 293 293 294 296 296 297 296 296 296 296 295 295 295 295 295 295 295 295 295 295 295 295 295 295 296 296
305 304 303 303 303 302 303 296 289 294 298 302 302 302 302 303 303 303 301 295 295 299 300 300 299 299 299 296 299 299 298 299 300 300 300 301 300 298 296 295 297 296 297 297 293 290 290 294 291 291 293 295 294 296 296 296 296 296 296 295 295 295 295 295 294 294 294 294 295 295 295 294 294 295
304 303 302 303 302 302 303 294 289 291 291 302 302 301 302 302 302 302 303 297 294 292 292 292 292 292 291 291 292 292 292 296 299 299 297 296 298 295 293 294 294 294 295 296 295 292 289 291 290 290 292 292 292 294 295 296 295 295 295 295 296 296 295 295 294 294 294 294 294 294 294 294 294 295
303 302 301 301 302 302 303 289 289 289 296 301 301 301 301 301 300 301 301 301 300 296 295 294 293 293 292 292 292 293 293 293 297 299 295 298 297 295 294 292 293 294 295 295 296 291 289 290 291 289 291 292 292 293 294 295 295 296 296 296 296 296 295 295 294 294 294 294 294 294 294 294 295 298
303 301 299 299 300 301 298 287 290 289 294 301 301 300 301 299 299 299 299 298 299 300 301 302 303 301 299 300 301 301 295 295 298 300 299 299 297 294 294 294 294 292 294 296 297 289 289 288 289 289 287 286 290 293 293 294 295 296 298 299 300 297 296 295 294 294 294 294 294 294 294 295 295 300
302 302 302 300 290 288 289 289 288 289 289 299 301 301 301 299 296 298 297 298 298 299 300 301 302 301 301 300 300 300 301 301 300 300 301 301 299 297 296 295 295 292 293 296 297 290 289 289 288 291 288 284 283 288 292 293 295 296 298 299 300 298 298 297 295 294 294 294 294 295 295 295 295 299
301 301 302 304 294 288 290 289 289 289 289 290 300 301 300 299 300 294 297 298 297 301 301 301 300 300 299 299 299 298 298 298 299 300 302 301 300 299 297 295 294 295 297 299 295 293 287 288 288 289 289 288 287 286 289 291 293 294 296 297 298 299 301 302 301 302 296 294 294 294 294 295 295 297
301 302 301 304 295 288 290 289 289 289 289 289 299 302 293 290 288 297 297 299 301 300 300 299 298 299 298 297 297 296 297 297 299 300 300 300 301 301 301 298 295 294 295 302 295 294 289 287 287 286 288 286 286 287 286 288 292 294 295 297 297 298 301 302 303 303 304 302 301 297 297 294 295 294
302 302 302 303 291 289 289 289 289 289 289 290 301 291 289 289 288 291 299 300 300 299 299 299 298 297 298 297 296 296 296 298 300 300 300 300 301 301 302 301 301 300 301 303 300 297 291 287 289 286 286 287 285 286 286 285 287 292 293 294 295 298 301 303 303 304 305 306 305 297 296 294 294 295
301 303 303 300 289 289 289 288 289 290 290 297 291 289 289 288 290 298 301 299 300 298 298 297 297 297 297 297 297 296 298 298 299 299 299 300 301 301 302 302 300 301 302 303 301 298 294 290 288 289 287 286 284 283 283 288 288 289 289 292 295 299 302 303 304 304 304 306 308 302 302 302 300 299
303 295 288 288 289 290 289 288 288 289 290 287 288 288 288 291 300 301 300 300 300 298 298 297 298 298 297 298 298 299 299 299 299 299 299 300 300 301 302 301 301 301 302 303 303 299 296 292 290 289 288 287 286 286 286 285 287 288 290 289 290 295 299 298 301 304 306 307 307 305 305 305 303 302
287 287 289 288 287 288 292 300 305 302 303 293 289 290 291 302 301 301 300 300 299 299 298 297 297 297 298 298 299 300 299 298 296 297 297 297 298 299 299 298 298 300 301 301 302 299 297 295 293 291 288 288 287 286 286 286 286 288 289 289 290 294 296 297 298 303 305 307 307 308 308 307 307 303
296 296 295 297 294 293 291 291 292 294 296 300 302 304 302 302 302 302 301 300 300 299 298 298 298 299 299 300 299 298 297 296 296 298 296 296 297 298 298 297 296 297 299 300 300 300 299 297 295 293 289 287 287 286 286 287 286 286 288 289 290 288 292 296 299 302 308 308 308 308 309 308 307 304
300 301 296 296 301 302 302 302 303 304 305 303 300 302 302 301 301 299 297 298 302 301 300 300 299 299 300 299 298 297 297 296 296 298 296 296 296 297 297 295 293 296 297 298 299 299 297 298 296 295 292 289 286 286 287 287 286 286 287 289 289 291 293 294 296 299 304 309 308 307 308 307 307 308
302 301 299 299 301 301 301 301 302 303 302 302 302 303 303 302 302 302 300 301 300 300 299 298 298 298 298 299 299 298 297 296 296 298 296 297 296 296 297 295 294 294 294 294 296 297 298 298 298 296 295 292 287 286 286 286 286 287 287 287 288 288 290 294 296 297 300 307 308 307 305 306 308 308
297 298 298 299 298 300 300 299 298 299 300 300 300 301 296 299 301 299 300 300 300 299 299 299 298 298 296 298 298 298 297 297 297 296 293 296 296 294 294 293 294 296 295 295 296 295 297 297 297 297 296 296 290 287 288 286 286 287 288 288 287 287 290 293 295 297 298 299 304 301 300 300 300 302
292 293 293 295 297 298 300 298 298 296 298 297 298 299 299 300 299 297 301 300 299 298 297 296 298 296 298 297 298 297 297 297 296 297 296 296 295 294 293 293 294 295 296 295 294 296 296 295 295 294 294 294 293 292 292 290 287 286 287 287 287 287 288 292 294 295 296 296 297 296 297 297 297 298
292 294 294 295 296 300 299 296 297 299 299 299 300 297 297 297 297 298 298 301 301 300 300 298 296 297 296 298 296 297 296 294 297 297 295 295 294 294 294 294 295 295 296 295 295 296 296 296 294 292 290 290 290 288 288 292 290 288 286 285 286 286 288 290 292 294 294 295 295 294 291 292 294 296
292 293 297 298 300 300 298 300 301 301 301 301 301 300 299 298 299 301 303 298 301 298 300 297 298 298 297 296 296 295 295 295 295 296 294 295 294 294 292 292 292 294 295 295 296 296 296 295 295 293 291 289 288 287 288 291 291 291 289 286 286 286 286 288 290 290 292 294 296 294 292 292 293 295
293 295 298 299 300 301 301 300 299 299 301 300 300 300 300 301 302 302 303 302 300 298 299 299 298 297 298 296 296 295 296 296 296 296 294 294 293 292 292 291 292 293 294 296 296 296 297 296 294 293 292 289 288 288 287 290 291 290 290 289 286 286 287 286 286 286 289 293 295 296 295 292 292 294
296 298 298 299 300 301 300 300 301 300 301 301 300 300 301 301 301 301 300 299 301 300 300 299 298 297 297 299 297 296 296 296 295 295 295 295 294 293 292 291 291 292 294 294 295 296 296 294 294 293 293 291 290 290 291 290 289 291 290 290 289 287 286 286 285 286 287 287 291 297 296 296 294 291
296 298 299 300 300 301 301 302 302 302 302 301 301 301 301 298 300 300 300 298 299 298 300 298 297 297 298 298 297 297 297 297 296 296 296 295 294 293 293 292 291 291 292 292 292 295 294 294 293 293 293 294 295 295 294 294 293 294 292 290 290 289 287 287 285 285 285 287 290 289 290 292 289 291
298 298 299 301 300 301 301 302 302 303 303 302 303 299 301 301 301 301 301 299 296 299 298 298 298 298 297 297 297 297 295 295 296 296 295 294 294 293 291 290 292 292 291 290 291 292 293 297 296 289 294 297 297 299 294 291 290 291 292 292 290 290 290 289 288 286 285 287 288 287 287 288 287 287
299 300 300 302 302 303 303 303 303 303 303 302 302 301 301 300 299 295 298 296 299 297 299 299 298 297 297 298 298 296 296 295 295 295 294 295 295 294 293 292 292 292 291 290 291 292 296 299 298 298 297 295 294 292 290 290 290 291 292 293 293 291 289 290 290 289 288 287 285 284 285 286 287 285
301 301 301 301 302 303 303 303 304 303 302 302 301 302 298 298 299 298 299 298 298 298 298 298 298 298 298 298 298 297 297 296 296 295 294 294 294 294 294 294 293 292 293 292 293 294 295 298 298 297 295 294 293 293 291 290 291 291 292 292 293 294 293 290 289 289 289 288 288 287 286 285 283 281
301 301 302 302 303 303 304 304 303 303 303 303 301 300 299 298 297 298 298 298 298 298 298 298 298 298 297 298 298 298 298 297 297 295 295 294 294 295 295 294 293 293 293 293 293 293 294 295 296 296 294 292 293 293 291 291 291 291 292 292 293 293 293 294 294 291 290 289 288 288 288 288 287 286
301 302 302 303 303 303 303 304 304 304 303 302 299 299 298 297 297 298 298 298 298 298 298 298 298 298 298 298 298 297 297 295 295 296 296 296 296 295 295 294 294 293 293 293 292 292 293 294 295 295 294 293 294 293 292 292 292 291 291 291 291 293 293 293 293 292 291 290 289 288 289 288 288 288
Wind_Speed
7 7 7 6 6 5 5 5 5 5 4 4 4 5 6 6 6 7 6 6 7 8 10 9 9 11 11 11 11 11 11 12 13 13 13 14 14 15 16 19 21 22 20 20 20 19 19 19 20 21 23 24 24 24 24 23 22 22 24 24 24 24 24 21 21 21 22 23 22 20 18 18 18 17
5 6 6 5 6 5 5 5 5 4 4 4 5 4 4 5 6 6 7 7 5 8 8 8 10 11 12 11 11 11 11 12 12 14 15 14 14 18 20 22 22 20 18 18 17 17 18 19 21 23 24 25 25 25 25 24 24 24 25 24 24 24 23 22 22 22 21 22 22 21 20 19 18 18
5 6 6 5 5 4 4 4 4 4 4 4 4 4 3 3 4 5 5 7 5 7 9 9 10 11 12 12 11 11 11 11 12 14 14 15 17 21 21 19 17 15 15 15 16 17 18 18 20 21 23 24 26 26 26 26 26 27 26 25 26 25 24 24 23 24 23 22 23 22 21 19 19 18
5 5 5 4 4 3 4 5 4 4 4 3 3 4 4 3 3 4 5 7 9 8 9 10 10 11 12 12 12 13 11 10 13 13 14 16 19 16 15 17 16 16 14 14 15 18 18 18 19 20 21 24 26 26 26 24 24 25 24 22 22 22 22 22 22 24 23 22 22 22 21 19 19 18
6 6 6 6 5 4 4 4 4 4 4 3 3 3 3 3 3 4 5 7 9 8 8 9 9 10 11 11 12 14 13 13 12 14 14 16 15 15 14 15 18 16 14 15 16 16 16 17 21 22 22 22 23 25 23 22 22 21 20 20 21 22 22 23 22 23 24 23 22 21 21 20 18 18
4 5 6 6 5 4 5 5 5 5 4 4 4 4 4 4 4 4 6 7 8 11 10 9 10 10 10 12 11 13 14 14 14 15 16 14 14 14 14 15 16 18 17 17 17 19 20 20 20 20 20 20 20 21 21 21 21 21 21 20 18 18 21 22 22 23 24 23 22 21 20 20 18 17
6 5 5 5 4 3 4 4 4 4 4 4 4 4 4 4 5 6 6 7 9 11 10 10 11 10 10 11 13 14 13 14 14 17 16 15 13 13 16 16 16 18 15 18 20 20 19 19 19 19 19 20 20 20 21 21 21 21 20 20 20 20 20 21 22 22 25 24 22 21 20 19 18 18
5 5 5 4 3 3 4 4 4 5 5 4 4 5 5 5 6 6 7 7 8 9 11 11 11 10 11 11 12 12 12 14 15 14 15 16 15 16 16 17 17 19 19 18 19 19 18 18 19 19 18 19 19 20 21 21 21 21 20 21 21 21 21 20 20 20 23 26 23 21 20 21 20 19
5 4 4 4 4 4 4 4 4 5 6 5 4 5 6 6 6 7 7 8 8 9 11 11 10 10 10 11 12 12 14 15 14 14 15 16 17 17 16 16 17 20 18 17 18 18 18 18 19 19 20 22 23 23 23 22 22 21 21 21 21 21 21 21 21 22 23 24 22 21 21 21 20 19
4 4 4 3 3 4 4 4 5 5 6 5 5 6 6 7 7 8 8 8 9 9 10 11 11 10 11 11 10 13 15 16 16 15 15 15 16 16 16 16 16 15 15 16 17 18 18 21 23 23 21 20 20 20 21 21 21 21 21 20 20 21 21 21 21 21 20 23 24 21 21 21 20 20
4 4 4 3 3 4 4 5 5 6 7 5 6 6 7 8 8 8 8 9 9 9 10 10 10 11 10 11 12 13 14 14 14 17 19 19 15 14 16 18 16 15 16 16 17 17 17 20 20 22 22 21 20 19 18 18 19 20 20 20 20 20 21 21 20 21 21 23 24 20 17 16 18 18
3 3 3 3 4 5 5 5 5 6 7 6 6 6 7 8 8 8 8 9 9 10 10 10 11 11 11 11 11 13 14 14 14 13 15 19 20 18 15 16 18 17 16 17 18 17 19 19 20 21 21 22 19 17 17 18 17 17 17 18 20 20 19 19 19 19 20 21 22 19 16 15 17 16
3 3 3 3 4 4 3 2 3 3 3 6 7 7 8 8 8 8 8 8 9 10 10 10 10 11 12 11 13 14 14 15 17 17 17 17 18 17 16 17 18 17 18 18 18 18 18 17 18 17 18 17 20 19 18 16 16 15 13 13 14 15 17 18 17 17 19 19 21 19 17 17 18 18
3 2 2 4 4 2 3 5 5 5 3 4 4 6 7 7 7 7 8 8 9 10 11 11 11 12 12 13 14 14 14 15 17 18 17 18 19 17 17 16 15 17 18 19 20 18 16 17 18 18 17 16 16 15 14 14 13 12 11 9 8 10 12 13 14 15 16 17 18 19 16 15 17 17
4 3 2 2 6 8 8 8 9 6 8 7 6 7 7 6 5 7 7 8 9 9 10 11 11 11 13 14 14 13 15 15 17 17 17 17 17 17 20 21 19 15 18 17 19 20 18 17 18 17 17 17 16 16 16 16 17 18 17 15 14 14 14 14 15 15 16 16 17 19 16 15 16 17
3 3 2 1 1 1 5 5 2 7 10 8 8 9 10 9 8 7 4 7 8 9 10 11 11 12 12 14 13 14 15 16 16 17 17 16 17 20 20 20 20 19 21 21 18 19 16 15 18 18 17 17 16 16 18 18 18 17 17 17 15 14 14 16 16 17 17 17 17 19 17 15 15 16
2 2 2 1 1 1 4 5 4 6 3 7 12 11 13 12 10 7 8 9 6 8 10 10 12 12 13 14 13 14 16 16 17 17 16 16 17 17 18 19 20 21 21 17 17 18 17 17 18 18 17 17 16 16 17 18 17 17 17 18 18 17 17 17 18 18 18 18 18 19 18 16 16 17
3 2 2 1 1 2 2 3 6 7 6 7 6 5 5 6 4 3 6 2 5 7 8 10 11 12 12 12 13 15 15 16 17 18 18 19 18 19 19 20 19 20 18 18 18 19 18 17 18 20 18 15 17 17 19 20 20 19 18 18 19 20 19 19 19 19 18 18 18 18 18 16 16 16
3 2 1 1 1 1 2 3 5 6 8 8 6 6 7 7 6 5 5 7 8 9 8 9 11 12 12 12 14 14 14 15 15 16 19 20 18 18 17 16 17 17 17 18 16 17 20 19 19 18 17 18 18 18 19 19 19 17 17 18 18 18 18 19 19 19 19 19 18 18 18 15 15 15
4 3 2 2 1 2 1 5 1 4 7 8 7 7 8 7 7 6 3 3 6 7 9 10 11 11 13 15 15 15 15 15 16 17 16 15 15 17 16 18 18 18 17 15 13 16 20 18 17 17 17 17 18 17 16 17 18 17 15 17 19 18 18 18 19 19 19 19 19 18 17 15 14 15
4 3 2 1 1 2 2 5 4 5 8 8 8 8 8 7 7 7 7 5 7 10 12 14 15 17 18 19 19 19 22 17 16 15 16 16 16 16 19 18 17 18 16 13 15 15 18 18 16 19 17 17 16 16 16 14 15 19 21 17 15 16 16 17 17 18 18 19 19 18 17 14 14 14
4 3 4 5 3 3 3 5 4 6 8 7 8 9 9 9 9 8 9 10 11 13 11 12 13 14 15 17 18 18 16 16 14 14 16 17 15 16 17 17 17 16 16 17 17 15 16 17 17 17 17 15 13 14 14 15 16 17 16 16 16 16 16 16 17 16 17 18 18 18 17 14 13 12
4 5 5 6 5 4 4 3 4 5 7 7 7 8 8 8 9 10 11 12 13 13 13 12 12 12 12 12 12 13 13 14 14 14 15 15 15 14 16 17 18 18 17 17 17 16 15 15 16 16 17 19 12 9 13 15 14 12 11 11 9 10 13 16 17 17 17 17 18 18 16 14 14 11
5 5 5 7 6 4 4 5 4 6 5 6 7 7 7 8 10 11 12 13 12 13 12 12 11 11 11 11 11 11 12 13 14 15 14 14 15 14 15 15 15 14 15 12 13 14 12 12 14 14 13 15 17 17 16 15 14 13 10 10 10 11 9 13 14 18 18 17 18 17 15 15 16 11
5 5 5 5 8 6 4 5 5 6 7 6 6 6 7 8 8 9 11 13 13 11 11 11 10 10 10 10 10 11 11 12 13 14 15 15 14 14 14 13 14 14 15 10 11 12 11 12 13 16 15 14 14 16 17 15 13 12 12 11 11 10 10 8 6 8 15 19 18 16 15 16 19 15
4 4 3 4 7 6 3 5 6 6 7 7 6 5 5 8 9 8 10 10 9 9 10 10 10 10 10 10 10 11 12 12 13 14 15 15 15 14 13 14 14 16 17 10 10 11 11 12 13 12 15 16 16 14 16 14 11 12 12 10 10 10 11 11 8 7 7 8 10 14 14 19 18 22
4 3 2 4 7 3 4 6 7 8 8 9 6 3 7 9 11 10 8 8 9 9 9 10 10 10 10 10 11 11 12 12 13 14 14 16 16 15 14 14 13 14 14 9 7 7 6 8 11 13 14 15 17 15 14 14 14 14 12 11 12 10 9 9 8 7 6 4 8 17 17 19 21 20
2 3 1 4 6 5 7 8 9 10 8 7 9 9 10 11 11 9 8 7 9 9 9 10 10 11 11 11 11 11 12 13 14 14 14 15 16 16 15 15 15 14 15 8 5 4 7 8 11 11 12 13 13 15 16 13 13 12 14 13 11 9 7 8 7 5 6 6 2 9 9 9 11 12
1 6 6 5 7 8 9 10 11 12 13 12 11 10 11 10 8 5 7 8 8 9 9 10 11 11 11 11 11 12 12 13 13 13 13 14 14 15 16 15 14 13 12 7 3 4 5 7 10 9 9 9 9 12 14 15 14 12 11 12 12 11 8 10 9 7 6 6 4 7 7 8 10 11
9 8 7 9 10 11 10 8 6 5 3 8 10 12 10 8 4 5 6 8 8 8 10 10 11 11 11 11 11 12 12 12 13 13 14 14 14 15 15 16 15 14 12 15 9 3 4 5 9 10 9 8 7 10 13 15 15 14 13 14 12 8 7 11 9 8 8 7 6 7 7 6 9 11
6 7 8 6 6 8 10 11 11 10 10 10 9 7 4 3 4 5 6 7 6 8 10 10 10 10 11 11 11 11 12 12 12 12 13 14 14 15 15 15 16 15 15 14 15 11 5 6 8 10 9 8 7 8 10 12 14 15 12 11 10 10 10 11 11 9 6 4 4 5 5 3 6 10
7 6 7 10 8 8 9 9 8 8 5 3 4 3 4 4 4 4 7 8 5 8 9 9 9 10 11 11 12 12 12 12 12 12 13 13 14 15 15 14 13 15 15 15 14 15 11 8 9 10 9 5 6 10 9 12 16 15 13 12 12 9 8 10 12 10 11 1 2 4 5 5 6 6
5 6 7 7 7 6 5 4 4 3 3 3 4 3 3 5 4 5 6 6 6 8 9 9 10 10 11 11 12 12 12 12 12 12 13 13 13 14 14 14 13 14 15 16 16 15 14 11 9 10 9 4 2 5 9 13 17 16 14 13 11 11 12 10 12 13 14 5 3 4 6 9 8 2
5 6 5 6 5 6 5 4 3 3 3 4 4 5 3 5 4 5 5 5 7 7 8 8 9 10 9 11 12 12 12 12 12 12 13 13 13 13 14 15 14 15 15 16 16 16 15 15 12 12 10 3 4 2 7 10 14 16 14 13 15 13 13 13 14 14 11 10 8 10 9 8 9 10
5 6 5 5 5 6 6 3 3 2 4 3 3 4 5 5 4 4 5 5 7 7 5 5 7 7 9 9 11 11 11 12 12 12 12 12 13 13 14 15 15 15 16 16 15 16 16 16 17 17 15 13 5 2 10 14 11 16 16 15 16 15 15 13 12 13 13 14 11 9 7 8 8 9
5 5 5 5 4 6 4 3 4 5 4 4 4 3 3 3 3 5 4 6 7 6 6 6 6 6 8 10 8 10 11 9 11 12 12 12 13 13 13 13 14 15 15 15 16 16 16 16 17 19 19 17 15 13 8 15 17 12 14 15 15 14 13 13 11 8 10 11 10 9 7 6 8 9
6 5 7 7 6 5 4 6 5 4 4 5 5 5 4 4 4 5 5 6 7 5 7 6 6 6 7 7 9 7 8 10 10 11 10 12 12 13 12 13 13 14 15 15 15 15 15 16 17 17 17 18 18 16 12 8 12 17 15 14 14 13 14 12 12 13 12 10 8 9 7 7 8 8
6 8 8 7 6 6 5 5 5 5 5 5 5 5 6 6 5 6 6 6 6 5 5 5 6 6 7 6 7 7 8 8 9 9 9 11 10 11 11 12 12 14 14 14 15 15 15 15 16 16 17 17 17 17 18 11 4 11 20 16 15 14 13 13 14 14 12 11 10 8 8 9 10 8
8 8 8 7 6 6 6 5 5 5 6 5 5 6 6 6 5 6 6 6 7 6 7 6 6 6 7 9 6 7 7 8 9 9 9 10 11 12 11 11 11 13 14 13 14 14 14 15 15 14 14 15 16 15 14 10 7 4 11 18 14 14 15 14 13 10 11 11 11 7 5 4 4 9
10 9 8 7 7 6 6 6 6 5 5 5 6 5 5 6 6 6 6 5 6 6 8 6 6 7 6 6 6 6 7 10 8 8 10 10 9 10 10 10 11 11 11 12 13 14 14 13 13 14 12 10 9 9 8 7 2 3 4 11 22 18 13 12 12 12 12 11 9 7 7 7 9 10
9 9 9 8 7 7 7 7 6 6 6 6 6 6 6 6 7 6 6 6 6 6 5 5 5 6 5 6 6 6 7 7 7 7 8 9 8 8 9 10 10 11 11 12 12 12 13 14 14 13 12 10 9 9 7 10 12 10 11 8 11 19 22 19 14 11 10 11 10 9 10 10 9 10
9 9 8 8 7 7 7 7 6 6 6 6 6 6 6 5 4 5 5 6 7 5 5 5 5 5 5 5 6 6 6 7 7 7 7 8 9 9 9 10 10 10 11 12 12 12 13 14 14 14 14 11 11 12 13 13 12 12 11 11 7 9 15 21 22 21 18 14 14 14 11 8 6 11
8 8 8 7 7 7 7 7 7 7 6 6 6 6 4 4 4 4 5 5 5 5 5 5 5 5 6 6 5 6 6 6 6 6 7 7 8 9 9 9 9 9 10 10 11 10 10 12 13 13 12 11 11 10 12 12 12 11 11 11 10 6 4 12 17 19 21 23 22 17 14 9 7 10
8 8 8 8 7 7 7 7 7 7 6 6 4 5 4 5 5 5 5 6 6 6 6 6 5 5 5 5 5 5 6 6 6 6 6 6 7 7 8 8 8 9 9 10 10 10 10 10 10 11 12 13 12 12 12 11 12 11 10 10 10 8 8 6 4 8 12 15 18 21 19 19 15 13
8 8 8 8 7 7 7 7 7 7 6 5 4 4 4 5 6 6 6 6 6 6 5 5 5 5 4 4 5 6 6 7 7 5 5 6 6 6 7 7 8 9 9 9 10 10 10 10 10 9 9 11 11 11 11 10 10 10 11 10 10 10 11 8 7 5 5 6 8 13 19 16 15 15
Wind_Direction
85 83 83 86 89 82 75 71 65 60 52 49 41 31 27 3 358 354 347 14 346 356 355 341 342 344 339 335 330 324 319 318 319 313 309 306 303 304 299 295 293 290 286 282 280 277 277 279 280 281 285 290 292 293 293 292 289 289 289 289 288 286 287 289 291 289 286 287 292 296 294 292 294 295
86 88 89 88 86 77 78 74 63 58 52 49 42 34 32 19 9 353 337 337 352 338 337 335 331 331 330 328 323 317 308 309 312 312 306 302 302 303 296 291 287 284 282 282 282 281 279 280 283 286 289 291 292 291 291 290 288 286 286 286 287 287 285 284 285 285 283 282 285 288 289 289 290 292
97 101 101 99 94 93 84 82 75 58 42 38 42 35 20 26 1 344 331 319 340 336 322 323 322 321 321 321 315 308 310 316 313 306 304 303 305 294 292 290 291 293 293 292 292 291 288 285 285 283 285 286 289 291 292 291 289 287 286 286 286 285 283 282 283 283 281 280 281 282 284 286 289 291
107 109 103 92 92 98 91 76 63 60 50 30 27 27 13 17 0 325 319 310 310 325 317 317 314 320 320 314 313 315 314 314 304 311 305 305 301 301 308 308 308 307 297 292 286 285 284 286 284 287 283 288 293 293 292 293 292 289 286 284 281 279 277 276 275 277 278 276 276 279 281 282 284 286
107 101 99 94 85 72 66 63 58 46 35 32 29 15 2 1 359 339 322 313 312 312 319 314 320 318 318 316 318 317 317 316 317 310 309 310 310 309 311 311 308 296 296 297 295 293 291 290 294 292 289 289 288 288 286 283 282 279 276 275 275 274 273 273 274 275 277 276 274 276 278 279 279 279
106 106 97 94 84 69 64 51 45 32 23 19 18 6 2 350 344 340 323 318 310 314 319 320 319 319 325 314 318 320 320 320 317 315 314 312 312 312 311 312 311 322 317 313 308 305 298 296 290 286 285 283 281 281 279 277 276 276 275 272 269 265 265 266 270 272 273 273 270 269 271 271 272 273
115 113 108 99 91 74 66 61 50 32 17 8 20 359 353 343 340 331 325 316 315 315 316 320 321 326 324 317 320 323 320 317 319 318 316 316 315 315 315 312 312 314 316 317 308 300 297 294 290 287 285 282 280 278 277 276 273 272 269 267 265 263 259 260 263 266 271 272 271 270 269 271 271 270
114 108 106 96 87 75 64 46 43 33 13 9 10 358 353 343 343 329 320 318 314 315 314 321 322 324 320 320 321 320 318 321 322 318 316 315 316 317 316 313 315 321 317 304 299 299 300 300 297 293 287 286 284 280 277 274 272 270 267 264 263 261 260 259 256 255 261 267 267 265 266 268 268 267
109 107 95 91 78 60 55 46 34 24 13 7 5 359 351 345 342 331 325 322 321 318 316 317 319 318 319 322 320 323 325 324 320 319 318 320 318 318 317 316 319 318 313 310 306 308 307 300 297 297 295 289 284 280 277 274 271 268 265 263 260 257 257 256 256 256 258 263 262 261 259 260 261 260
111 100 94 84 72 57 44 40 29 16 9 7 358 0 350 345 338 331 328 327 326 322 319 320 319 325 326 324 323 328 330 327 323 322 322 318 319 319 317 318 323 321 320 317 316 313 311 313 310 299 292 287 283 278 273 271 269 266 264 262 259 256 255 255 254 253 252 259 262 260 259 259 259 259
109 98 91 87 70 53 38 33 28 16 8 4 356 1 349 344 338 332 334 331 329 329 327 323 322 324 327 325 325 331 330 324 325 327 326 322 321 319 318 319 322 324 321 319 316 313 313 307 304 305 298 289 283 277 273 270 267 264 261 256 254 253 253 252 251 252 252 255 260 257 254 250 255 255
128 107 95 81 62 45 34 20 27 20 11 359 0 1 350 345 339 335 334 335 333 334 333 328 331 329 324 328 328 327 327 327 328 331 326 319 320 321 320 320 324 325 328 324 320 319 316 317 313 308 306 303 298 294 291 286 280 270 258 251 250 251 248 247 247 245 250 252 257 256 248 244 247 246
153 143 101 66 57 45 31 24 353 7 332 351 1 358 353 346 341 336 339 338 338 336 330 331 333 327 328 332 333 333 334 336 332 328 324 316 315 318 318 324 328 330 327 325 322 319 322 315 313 310 311 308 308 305 295 290 283 275 271 263 255 248 246 246 245 241 244 245 253 255 248 241 243 245
187 162 148 112 110 210 220 200 193 203 224 270 312 345 351 352 345 342 340 341 343 334 331 335 332 331 330 332 334 329 332 329 326 325 325 321 320 321 320 324 330 332 333 328 321 318 317 315 311 312 308 308 305 303 303 302 306 309 309 289 264 254 254 253 251 248 245 246 252 257 250 240 238 243
180 193 181 161 180 208 213 200 200 204 206 215 250 257 267 282 319 348 342 344 337 335 330 328 331 331 327 330 329 329 333 330 328 325 323 320 324 329 332 330 329 339 336 326 321 315 320 318 313 311 310 309 307 303 298 304 312 304 291 279 270 265 257 250 246 245 246 248 252 257 251 240 238 241
182 177 180 189 243 30 2 325 231 207 201 214 229 242 254 259 238 235 313 335 335 334 327 324 328 329 331 327 328 333 332 329 324 325 322 325 329 328 328 330 329 328 332 327 320 314 319 318 314 311 311 311 308 303 302 296 284 281 280 278 272 262 259 259 259 255 253 250 249 253 249 238 235 239
182 178 178 170 278 118 208 253 346 334 326 207 217 234 243 234 218 213 218 229 280 322 317 321 322 330 329 324 329 330 327 322 321 323 323 326 325 325 323 327 325 329 336 326 320 316 318 322 317 311 312 310 307 306 300 300 302 295 287 280 270 260 252 251 252 253 250 247 246 248 249 237 231 234
190 188 211 205 206 17 327 17 337 339 326 333 328 326 342 348 346 200 193 319 289 296 319 322 318 320 322 319 320 320 320 323 326 325 322 321 321 326 325 323 325 328 332 329 326 318 320 326 318 311 311 310 309 304 302 298 289 283 280 274 271 265 259 252 249 247 246 245 243 244 247 238 229 230
169 163 174 251 301 348 343 47 359 319 334 326 331 332 340 346 346 343 348 346 339 332 324 318 314 310 312 314 313 311 313 315 316 317 314 312 315 320 316 319 330 329 334 331 330 323 323 325 319 313 313 314 307 305 305 303 299 291 280 274 267 260 252 249 247 244 243 240 240 239 242 235 227 226
172 175 196 234 264 332 54 89 357 310 311 318 333 337 340 343 342 346 68 199 257 283 302 308 309 304 299 293 292 293 295 299 303 311 310 313 322 324 331 335 338 333 335 333 332 326 324 326 321 314 314 310 308 310 306 303 301 295 279 266 263 258 251 249 245 243 241 238 236 236 237 230 222 222
159 180 211 250 310 301 54 73 348 322 302 314 335 338 339 337 338 339 347 327 276 248 253 266 270 274 275 275 276 278 282 283 288 304 319 328 328 329 334 337 336 336 336 335 338 324 322 331 322 315 314 313 308 307 310 313 312 313 303 289 270 254 249 245 243 242 239 235 234 232 231 225 217 218
167 120 42 311 280 303 63 55 339 320 299 320 338 337 336 334 338 340 343 330 326 317 299 286 278 277 279 277 275 272 274 285 294 326 327 327 326 331 338 334 333 331 336 342 342 326 326 326 324 319 315 311 313 312 312 315 312 302 290 264 249 250 245 238 237 234 233 232 231 229 226 216 209 218
180 156 191 224 294 334 24 16 297 302 293 320 339 337 329 335 334 342 332 324 320 320 320 318 318 314 309 314 321 324 314 304 313 329 325 326 330 332 335 334 332 333 339 343 342 331 329 330 327 327 327 327 319 315 320 319 320 312 304 300 284 247 235 238 234 232 230 228 227 226 219 206 201 226
181 183 184 173 199 237 250 261 263 264 272 292 329 330 335 337 333 332 321 312 312 309 310 314 315 315 320 322 323 328 328 327 329 328 328 326 329 328 330 333 335 329 325 331 348 336 324 328 325 330 324 322 324 326 326 325 323 317 311 308 302 295 265 236 235 231 229 223 223 221 212 200 200 219
179 187 199 165 156 202 227 253 248 249 245 268 291 321 338 331 321 310 301 306 296 303 312 314 318 325 328 330 332 332 330 329 332 327 322 327 330 327 325 328 331 324 326 333 352 342 333 326 327 328 328 329 318 317 323 322 321 324 330 322 312 300 294 282 263 245 217 220 217 213 203 197 198 219
174 186 184 138 142 173 225 264 272 264 248 235 262 314 322 300 298 289 295 292 306 318 321 324 325 330 330 335 335 333 332 332 331 324 324 329 329 327 327 329 329 331 327 336 357 348 336 330 327 323 326 332 328 326 325 327 327 330 321 316 311 302 293 284 273 263 241 209 207 204 199 192 198 210
171 176 199 111 86 360 305 290 279 275 268 254 243 287 284 284 284 281 279 305 317 325 324 325 331 330 334 335 332 333 331 330 327 324 326 326 327 327 330 327 324 324 325 314 331 349 340 311 314 322 322 322 326 328 333 334 331 331 328 327 315 295 281 275 267 272 271 224 211 179 185 185 195 202
187 188 170 40 5 322 299 285 277 269 258 266 300 282 276 277 281 275 306 334 332 326 332 335 335 334 336 333 332 331 329 325 323 326 326 327 328 331 331 331 332 333 332 305 315 332 348 320 313 311 314 319 323 331 331 330 327 329 329 327 322 321 316 310 283 266 269 268 249 152 178 181 195 198
61 32 1 324 287 283 277 276 273 261 244 239 246 252 260 267 275 322 346 336 339 341 341 340 335 336 337 334 332 328 323 321 324 330 329 328 328 331 330 331 336 342 344 340 276 326 332 335 324 314 311 317 321 325 334 332 326 335 328 328 338 335 353 345 329 290 258 243 206 163 188 184 176 190
317 297 286 280 270 260 252 253 258 290 319 197 223 242 247 259 306 348 346 349 343 340 343 343 341 341 337 335 333 328 328 332 337 337 334 333 336 337 337 336 341 345 345 350 354 272 338 338 336 330 317 315 324 326 333 336 341 341 340 348 331 326 346 342 331 298 262 241 205 178 199 190 171 176
249 239 232 253 266 287 286 272 272 271 264 259 239 234 231 287 341 338 347 343 323 340 346 341 344 340 338 335 335 339 338 340 340 340 338 337 338 339 339 338 341 342 347 352 354 353 351 353 337 341 332 322 324 332 328 339 352 353 345 345 347 355 317 334 346 341 287 208 215 164 162 195 172 163
226 234 216 224 238 235 236 236 232 228 242 289 320 313 308 314 324 298 257 240 328 353 342 340 334 337 339 342 344 341 342 343 341 341 342 339 339 341 339 342 344 343 342 349 349 353 356 5 351 346 339 333 334 325 327 355 7 356 347 352 348 335 332 350 357 355 338 12 165 155 150 178 170 166
228 237 247 252 247 244 247 267 273 289 290 306 318 301 300 313 313 345 349 347 351 348 340 337 336 336 340 339 345 345 343 344 339 345 342 340 342 340 343 344 344 345 345 347 347 348 349 356 11 0 336 345 136 306 342 2 5 2 358 352 344 348 353 352 9 7 357 337 110 80 64 24 18 27
264 255 258 257 254 250 253 261 283 287 299 305 311 310 305 283 319 332 326 337 344 337 323 326 332 338 332 338 343 344 341 339 337 343 344 341 345 345 347 345 345 343 343 346 347 348 347 347 355 3 354 7 143 307 4 14 4 2 360 354 3 356 353 357 12 11 13 360 55 70 52 35 24 14
237 252 252 249 248 246 249 249 255 274 277 283 284 288 301 301 306 308 310 337 330 319 321 326 329 328 333 334 338 335 336 334 333 342 344 343 348 348 347 347 344 343 346 348 349 350 350 350 355 357 357 1 23 195 57 34 9 7 359 5 359 358 356 350 357 13 17 26 24 39 45 43 31 15
245 241 243 246 253 256 257 255 260 263 275 279 281 281 282 292 298 293 305 340 321 317 319 328 321 325 328 327 329 327 330 329 334 340 340 345 349 346 347 347 341 342 346 351 349 352 353 354 358 358 355 357 359 0 14 54 45 13 7 355 359 357 352 351 353 0 15 24 30 34 37 32 29 24
250 248 248 246 242 239 239 242 249 263 280 282 280 280 278 283 289 295 316 298 296 311 319 310 316 324 321 327 323 326 333 335 339 338 340 343 348 347 346 345 341 344 347 351 350 353 355 358 0 1 356 357 0 1 2 348 40 37 22 7 357 1 353 347 8 15 14 5 27 38 35 35 27 27
242 249 247 246 244 248 254 263 262 257 261 276 282 282 275 277 288 298 305 305 324 323 319 319 324 318 323 322 322 329 329 335 336 339 341 344 345 346 347 344 341 347 347 347 350 353 357 360 1 1 2 2 357 360 356 360 20 37 33 28 15 358 357 4 14 11 356 360 12 36 34 33 24 2
245 244 239 242 243 244 248 250 258 265 266 268 275 276 274 274 286 300 305 310 314 319 323 320 319 321 311 311 322 322 327 333 335 339 343 343 343 343 344 341 340 345 345 345 348 352 357 359 1 357 359 4 4 360 356 347 10 45 52 44 37 18 16 10 8 358 1 355 346 345 53 70 84 29
235 244 246 245 247 251 253 256 258 260 264 263 264 273 280 278 280 287 300 314 321 322 313 311 303 300 302 311 315 316 318 326 331 336 343 340 338 337 341 336 340 345 343 346 346 351 353 357 356 354 348 357 353 353 347 350 0 68 81 53 51 51 32 20 19 5 3 355 343 356 8 13 26 10
224 227 231 237 244 249 253 258 261 263 266 269 268 263 265 272 275 280 305 316 312 301 302 307 310 300 297 300 303 308 311 319 324 330 334 331 331 333 324 322 346 348 344 345 348 346 351 352 348 321 338 353 349 343 356 8 14 20 24 45 67 58 53 46 35 26 21 0 5 10 13 12 13 10
224 227 236 240 245 249 255 258 262 267 271 271 271 267 263 267 279 285 289 268 261 259 269 282 296 306 311 313 315 316 316 318 317 322 326 325 327 330 334 344 345 344 341 346 347 347 342 344 347 350 0 358 2 3 7 8 5 8 19 18 30 81 69 57 49 49 43 29 21 20 12 4 9 28
227 236 240 246 250 255 257 261 264 266 267 269 268 268 267 269 276 273 284 294 301 299 305 312 316 317 319 319 317 315 311 311 316 320 319 316 325 330 336 342 339 336 337 340 342 340 342 343 353 349 357 2 5 7 4 3 6 6 8 12 15 27 69 89 73 57 51 55 55 52 47 28 11 28
236 237 243 246 252 252 255 258 263 265 266 264 264 265 265 266 266 268 276 287 294 302 310 312 313 311 309 308 308 306 304 309 319 315 310 314 321 329 331 333 332 335 331 344 339 343 343 346 353 350 356 1 358 3 2 359 9 6 7 4 4 14 27 22 83 91 66 50 60 70 57 57 66 67
237 242 245 250 253 256 258 262 261 261 260 261 260 263 267 267 269 274 277 278 281 284 284 290 297 303 301 303 306 307 310 308 301 299 304 312 324 324 329 330 334 332 335 341 337 339 342 344 351 352 358 1 355 359 359 355 7 4 7 5 7 9 15 9 21 49 54 67 35 66 85 76 59 52